Tracking 30746 objects as of 19-Jun-2025
HD Live streaming from Space Station
objects crossing your sky now

IGS O-8

Track IGS O-8 now!
10-day predictions
IGS O-8 is classified as:


NORAD ID: 58762
Int'l Code: 2024-010A
Perigee: 488.1 km
Apogee: 492.0 km
Inclination: 97.4 °
Period: 94.3 minutes
Semi major axis: 6861 km
RCS: Unknown
Launch date: January 12, 2024
Source: Japan (JPN)
Launch site: TANEGASHIMA SPACE CENTER (TNSTA)
Your satellite tracking list
Your tracking list is empty




NASA's NSSDC Master Catalog

Two Line Element Set (TLE):
1 58762U 24010A   25166.03320139 0.00000000  00000-0  00000-0 0    09
2 58762  97.3567 288.2653 0002858 311.0852  48.9146 15.27636075    08
Source of the keplerian elements: McCants